Vertical_Velocity
-1 0 -1 -1 -1 2 -2 -0 1 -1 0 1 -1 -1 -3 -0 -3 -1 0 -1 -1 -1 -2 1 1 0 1 -0 2 -1 1 0 -2
1 -2 -1 -1 -1 -1 1 2 1 1 0 1 1 -2 -0 1 -1 -0 -1 -1 -2 -0 1 -0 -2 1 1 -1 -1 1 0 0 -0
-1 1 1 0 -1 -1 -1 -1 0 0 -0 0 -1 -2 1 1 0 -1 -1 -0 0 1 2 0 -0 -0 -0 -0 1 1 -1 -0 -2
-1 -1 -1 -1 -0 0 -0 -1 -2 -0 -1 -1 -1 -1 1 1 -2 -0 -0 -1 -1 0 0 1 -1 1 -0 -2 1 1 2 -1 2
-2 -1 -1 -2 -2 -3 -2 -0 -1 -0 -0 -1 0 -1 -1 -1 -0 -2 -2 -0 2 -0 -0 -1 1 -2 1 -2 1 -0 -0 2 -1
-0 -2 -1 -0 -2 -1 0 -1 -1 -2 -1 -1 -1 -0 -0 -2 0 -1 -0 -1 1 0 -1 -0 1 -1 0 -0 1 0 2 -0 1
-2 -0 -1 -0 0 -1 1 -0 -0 -0 -2 -3 0 -1 -0 -1 2 -2 -2 -1 -2 0 -2 1 -0 -1 1 0 1 1 0 0 0
-1 -0 -0 1 0 1 1 -2 -0 2 1 -0 -0 -0 1 -1 1 1 -1 -2 1 -0 -1 0 -0 -2 1 0 -0 1 0 0 1
-0 -0 -1 1 -0 -2 -1 -3 -1 -2 -1 -1 2 0 -0 -1 -0 1 -1 -2 -2 0 0 -2 1 -1 -0 0 1 1 -1 -0 -1
-1 0 1 -0 -1 -0 -1 0 0 -1 -1 1 -2 1 -1 1 -0 0 0 0 -1 -1 -1 -1 0 0 -2 1 0 1 -0 -1 0
1 2 1 0 -1 0 -1 1 1 1 -0 -0 0 1 0 1 -1 0 -1 -1 1 -1 -0 0 -0 -1 -0 -1 -0 -0 1 -0 -1
3 0 -0 -2 -1 -0 1 0 -1 -2 -1 0 1 3 1 4 3 1 1 0 -0 -1 -0 -0 -1 -0 1 -0 -0 -1 0 1 0
3 -1 -0 -0 0 1 -1 -2 -1 1 -0 0 -0 -0 1 0 3 1 0 1 -0 -2 -1 -0 -1 0 -0 1 -1 -0 -0 -0 0
-1 1 0 1 1 1 -1 -1 1 1 -1 -1 -1 -1 3 3 2 1 2 2 0 -0 -1 -1 1 -1 -0 -0 0 -2 -0 -2 -1
2 2 2 1 -1 -0 1 -0 1 1 -1 -0 1 1 -2 5 2 4 1 3 -0 2 -0 -1 0 -0 -1 0 1 -1 -1 -1 -0
1 4 3 5 -0 -1 -0 1 2 -1 1 0 0 2 -0 0 3 -10 -3 1 -1 -1 -0 -1 -0 -1 -2 -1 -0 0 -1 -0 -2
3 0 3 3 1 -1 -0 -1 1 -1 -3 -0 -1 0 2 -10 -0 2 0 2 1 -0 -1 -1 -2 0 2 -0 -2 -2 -1 -1 -1
0 -1 1 2 9 1 -1 -0 2 4 -2 -2 1 -1 1 3 3 -1 0 -1 -2 -1 -2 -3 -2 -1 -0 0 -0 -1 -0 -1 -2
8 3 -1 -3 2 1 3 0 2 4 -1 2 -8 1 -4 0 -1 2 -1 -1 1 -3 -4 -2 -3 -1 -2 -2 -2 -0 0 -1 -2
10 8 -2 0 -0 2 1 3 5 -2 -1 1 2 -1 1 1 -1 0 -3 -1 -2 -2 -4 -4 -3 -3 -3 -3 -3 -3 -2 -1 -0
Height
3161 3160 3160 3159 3159 3159 3159 3158 3158 3158 3159 3159 3159 3159 3159 3159 3159 3158 3158 3158 3157 3157 3155 3155 3155 3154 3154 3153 3152 3152 3151 3151 3151
3162 3161 3160 3159 3159 3158 3158 3158 3158 3158 3157 3157 3157 3158 3158 3158 3158 3158 3157 3156 3156 3155 3154 3154 3154 3153 3152 3151 3151 3151 3150 3150 3150
3161 3160 3160 3159 3159 3158 3158 3158 3158 3158 3158 3157 3157 3157 3157 3157 3157 3156 3156 3155 3154 3154 3153 3153 3152 3151 3150 3150 3150 3149 3149 3148 3148
3161 3161 3160 3159 3159 3159 3159 3159 3158 3158 3158 3157 3157 3157 3157 3156 3155 3154 3154 3154 3153 3152 3152 3150 3150 3149 3148 3147 3147 3147 3146 3146 3145
3161 3160 3160 3159 3159 3159 3159 3159 3159 3159 3158 3157 3157 3156 3155 3155 3154 3153 3152 3152 3151 3150 3149 3148 3147 3147 3145 3145 3144 3143 3143 3142 3142
3160 3160 3160 3159 3159 3159 3159 3159 3158 3158 3158 3156 3156 3155 3154 3153 3151 3151 3150 3149 3149 3148 3146 3145 3144 3144 3142 3141 3140 3139 3138 3138 3138
3160 3159 3159 3158 3159 3159 3159 3159 3158 3157 3156 3155 3154 3153 3153 3151 3150 3149 3148 3147 3147 3146 3143 3142 3141 3140 3139 3137 3136 3135 3134 3133 3133
3159 3159 3158 3158 3158 3158 3158 3157 3157 3156 3155 3154 3153 3152 3151 3149 3148 3147 3145 3144 3143 3142 3140 3138 3136 3135 3135 3133 3132 3131 3130 3129 3128
3156 3157 3156 3156 3156 3156 3156 3155 3154 3153 3153 3151 3151 3150 3148 3147 3145 3144 3142 3141 3139 3138 3137 3135 3133 3132 3131 3129 3128 3127 3126 3125 3125
3154 3154 3154 3154 3154 3154 3153 3152 3152 3151 3150 3148 3147 3146 3146 3145 3143 3141 3139 3137 3135 3134 3133 3132 3130 3128 3127 3125 3125 3123 3122 3121 3120
3150 3151 3151 3151 3151 3151 3151 3150 3148 3148 3147 3146 3143 3142 3143 3142 3140 3138 3136 3134 3132 3130 3129 3128 3126 3124 3123 3121 3120 3119 3117 3116 3115
3147 3148 3147 3147 3148 3148 3147 3147 3146 3144 3143 3143 3141 3139 3139 3139 3138 3135 3133 3131 3129 3127 3125 3123 3122 3120 3118 3117 3115 3114 3112 3111 3109
3144 3144 3144 3144 3144 3144 3143 3143 3142 3141 3139 3139 3137 3136 3135 3135 3134 3132 3130 3128 3126 3124 3121 3119 3117 3115 3113 3111 3109 3108 3107 3105 3104
3140 3140 3140 3140 3140 3139 3139 3139 3138 3137 3136 3136 3135 3133 3131 3131 3129 3128 3126 3124 3122 3120 3117 3115 3112 3110 3108 3106 3104 3102 3100 3099 3097
3135 3136 3136 3135 3135 3135 3135 3135 3134 3134 3133 3132 3131 3129 3128 3127 3126 3124 3121 3120 3119 3116 3113 3110 3107 3105 3102 3100 3097 3095 3093 3091 3089
3130 3130 3130 3130 3131 3131 3131 3130 3130 3130 3130 3129 3126 3125 3124 3121 3120 3119 3117 3115 3113 3111 3108 3105 3101 3098 3095 3093 3090 3088 3086 3083 3080
3125 3126 3126 3126 3126 3126 3126 3125 3126 3126 3126 3124 3122 3120 3121 3118 3118 3115 3112 3110 3108 3105 3102 3099 3095 3091 3088 3085 3083 3080 3077 3075 3072
3120 3121 3121 3121 3121 3121 3121 3120 3121 3121 3120 3119 3118 3115 3115 3115 3112 3109 3107 3105 3102 3099 3095 3090 3086 3083 3081 3078 3075 3071 3068 3066 3063
3114 3115 3115 3116 3116 3115 3116 3115 3115 3115 3114 3113 3111 3110 3109 3108 3106 3105 3101 3098 3095 3091 3086 3082 3078 3074 3071 3068 3065 3062 3059 3056 3053
3107 3108 3109 3110 3109 3110 3110 3109 3109 3108 3107 3107 3105 3103 3103 3102 3101 3099 3096 3092 3088 3084 3079 3074 3070 3065 3061 3058 3054 3050 3048 3044 3041